Westminster, MD

1:56 PM EDT on June 27, 2017 (GMT -0400)
Carroll County Regional-Poage

Weather History for KDMW - March, 2014

Change the Weather History Date:

Saturday, March 29, 2014

  Actual Average (KTHV) Record (KTHV)
Temperature  
Mean Temperature 52 °F -  
Max Temperature 55 °F 0 °F 82 °F (1998)
Min Temperature 48 °F - 19 °F (2015)
Degree Days  
Heating Degree Days 14    
Growing Degree Days 2 (Base 50)    
Moisture  
Dew Point 47 °F    
Average Humidity 89    
Maximum Humidity 94    
Minimum Humidity 77    
Precipitation  
Precipitation 0.35 in - - ()
Sea Level Pressure  
Sea Level Pressure 29.91 in    
Wind  
Wind Speed 5 mph (ENE)    
Max Wind Speed 12 mph    
Max Gust Speed 20 mph    
Visibility 7 miles    
Events Rain    
Averages and records for this station are not official NWS values.
T = Trace of Precipitation, MM = Missing Value Source: NWS Daily Summary

Daily Weather History Graph

Daily Weather History Graph

Search for Another Location

Airport or City:

Trip Planner

Search our weather history database for the weather conditions in past years. The results will help you decide how hot, cold, wet, or windy it might be!

Date:

Astronomy

Mar. 29, 2014 Rise Set
Actual Time 6:57 AM EDT 7:29 PM EDT
Civil Twilight 6:30 AM EDT 7:56 PM EDT
Nautical Twilight 5:58 AM EDT 8:28 PM EDT
Astronomical Twilight 5:25 AM EDT 9:00 PM EDT
Moon 6:04 AM EDT (3/29) 6:31 PM EDT (3/29)
Length of Visible Light 13h 26m
Length of Day
12h 32m
Waning Crescent, 2% of the Moon is Illuminated
Mar 29
Waning Crescent
Mar 30
New
Apr 7
First Quarter
Apr 15
Full
Apr 22
Last Quarter

Hourly Weather History & Observations

Time (EDT) Temp. Dew Point Humidity Pressure Visibility Wind Dir Wind Speed Gust Speed Precip Events Conditions
12:00 AM 53.6 °F 48.2 °F 82% 30.09 in 10.0 mi Calm Calm - N/A   Clear
12:20 AM 55.4 °F 50.0 °F 82% 30.10 in 10.0 mi Calm Calm - N/A   Clear
12:40 AM 53.6 °F 48.2 °F 82% 30.10 in 10.0 mi SSE 3.5 mph - N/A   Clear
1:00 AM 55.4 °F 48.2 °F 77% 30.10 in 10.0 mi SE 3.5 mph - N/A   Scattered Clouds
1:20 AM 51.8 °F 48.2 °F 88% 30.10 in 10.0 mi Calm Calm - N/A   Scattered Clouds
1:40 AM 51.8 °F 48.2 °F 88% 30.10 in 10.0 mi Calm Calm - N/A   Clear
2:00 AM 50.0 °F 46.4 °F 87% 30.10 in 10.0 mi Calm Calm - N/A   Clear
2:20 AM 51.8 °F 48.2 °F 88% 30.09 in 10.0 mi Calm Calm - N/A   Clear
2:40 AM 50.0 °F 46.4 °F 87% 30.09 in 10.0 mi Calm Calm - N/A   Clear
3:00 AM 48.2 °F 44.6 °F 87% 30.08 in 5.0 mi NNE 5.8 mph - N/A   Clear
3:20 AM 50.0 °F 46.4 °F 87% 30.08 in 10.0 mi North 3.5 mph - N/A   Clear
3:40 AM 50.0 °F 46.4 °F 87% 30.08 in 10.0 mi ENE 3.5 mph - N/A   Clear
4:00 AM 50.0 °F 48.2 °F 94% 30.08 in 10.0 mi NE 4.6 mph - N/A   Clear
4:20 AM 51.8 °F 46.4 °F 82% 30.07 in 10.0 mi NE 5.8 mph - N/A   Clear
4:40 AM 51.8 °F 46.4 °F 82% 30.07 in 10.0 mi ENE 4.6 mph - N/A   Clear
5:00 AM 50.0 °F 46.4 °F 87% 30.08 in 10.0 mi NE 4.6 mph - N/A   Clear
5:20 AM 50.0 °F 44.6 °F 82% 30.07 in 10.0 mi East 6.9 mph - N/A   Clear
5:40 AM 50.0 °F 46.4 °F 87% 30.07 in 10.0 mi NE 3.5 mph - N/A   Scattered Clouds
6:00 AM 48.2 °F 46.4 °F 93% 30.09 in 10.0 mi NE 5.8 mph - N/A   Mostly Cloudy
6:20 AM 50.0 °F 46.4 °F 87% 30.08 in 10.0 mi ENE 5.8 mph - N/A   Overcast
6:40 AM 50.0 °F 44.6 °F 82% 30.07 in 10.0 mi NE 3.5 mph - N/A   Overcast
7:00 AM 50.0 °F 46.4 °F 87% 30.07 in 10.0 mi NNE 3.5 mph - N/A   Overcast
7:20 AM 50.0 °F 46.4 °F 87% 30.07 in 10.0 mi ENE 4.6 mph - N/A   Overcast
7:40 AM 50.0 °F 46.4 °F 87% 30.07 in 10.0 mi NE 4.6 mph - N/A   Overcast
8:00 AM 50.0 °F 46.4 °F 87% 30.07 in 10.0 mi NNE 3.5 mph - N/A   Overcast
8:20 AM 50.0 °F 46.4 °F 87% 30.07 in 10.0 mi NNE 4.6 mph - N/A   Overcast
8:40 AM 50.0 °F 46.4 °F 87% 30.07 in 10.0 mi NE 8.1 mph - N/A   Overcast
9:00 AM 51.8 °F 46.4 °F 82% 30.06 in 10.0 mi NE 5.8 mph - N/A   Overcast
9:20 AM 51.8 °F 46.4 °F 82% 30.05 in 10.0 mi NE 6.9 mph - N/A   Overcast
9:40 AM 51.8 °F 46.4 °F 82% 30.05 in 10.0 mi ENE 6.9 mph - N/A   Overcast
10:00 AM 51.8 °F 48.2 °F 88% 30.04 in 4.0 mi East 9.2 mph - N/A Rain Light Rain
10:20 AM 51.8 °F 48.2 °F 88% 30.04 in 1.8 mi East 6.9 mph - N/A   Drizzle
10:40 AM 51.8 °F 48.2 °F 88% 30.04 in 2.0 mi East 8.1 mph - N/A   Drizzle
11:00 AM 51.8 °F 48.2 °F 88% 30.03 in 2.5 mi East 9.2 mph - N/A   Drizzle
11:20 AM 50.0 °F 48.2 °F 94% 30.02 in 2.5 mi East 10.4 mph 16.1 mph N/A Rain Light Rain
11:40 AM 50.0 °F 46.4 °F 87% 30.01 in 3.0 mi East 9.2 mph - N/A Rain Light Rain
12:00 PM 50.0 °F 48.2 °F 94% 30.00 in 3.0 mi East 8.1 mph - N/A   Drizzle
12:25 PM 50.0 °F 46.4 °F 87% 29.99 in 2.0 mi East 10.4 mph 16.1 mph 0.01 in Rain Heavy Rain
12:45 PM 48.2 °F 46.4 °F 93% 29.97 in 2.5 mi East 10.4 mph - 0.03 in Rain Rain
1:05 PM 48.2 °F 46.4 °F 93% 29.96 in 3.0 mi ENE 10.4 mph - 0.02 in Rain Rain
1:25 PM 48.2 °F 46.4 °F 93% 29.94 in 4.0 mi ENE 9.2 mph - 0.02 in Rain Light Rain
1:45 PM 48.2 °F 46.4 °F 93% 29.94 in 2.5 mi East 11.5 mph - 0.03 in Rain Rain
2:05 PM 48.2 °F 46.4 °F 93% 29.92 in 1.8 mi ENE 10.4 mph - 0.01 in Rain Heavy Rain
2:25 PM 48.2 °F 46.4 °F 93% 29.91 in 1.8 mi ENE 8.1 mph - 0.01 in Rain Light Rain
2:45 PM 48.2 °F 46.4 °F 93% 29.89 in 2.0 mi ENE 10.4 mph - 0.02 in Rain Rain
3:05 PM 48.2 °F 46.4 °F 93% 29.87 in 2.0 mi ENE 11.5 mph - N/A Rain Light Rain
3:25 PM 48.2 °F 46.4 °F 93% 29.85 in 2.0 mi ENE 11.5 mph - 0.01 in Rain Rain
3:45 PM 48.2 °F 46.4 °F 93% 29.84 in 10.0 mi East 11.5 mph 16.1 mph 0.02 in Rain Light Rain
4:05 PM 48.2 °F 46.4 °F 93% 29.83 in 4.0 mi East 10.4 mph 18.4 mph 0.01 in Rain Rain
4:25 PM 50.0 °F 48.2 °F 94% 29.81 in 7.0 mi East 9.2 mph 19.6 mph 0.01 in Rain Light Rain
4:45 PM 50.0 °F 46.4 °F 87% 29.79 in 7.0 mi East 9.2 mph - 0.01 in   Drizzle
5:05 PM 50.0 °F 46.4 °F 87% 29.77 in 3.0 mi East 8.1 mph - 0.02 in Rain Heavy Rain
5:25 PM 48.2 °F 46.4 °F 93% 29.76 in 7.0 mi ENE 8.1 mph - 0.04 in Rain Rain
5:45 PM 48.2 °F 46.4 °F 93% 29.75 in 10.0 mi East 8.1 mph - 0.05 in Rain Light Rain
6:05 PM 48.2 °F 46.4 °F 93% 29.73 in 10.0 mi ENE 9.2 mph - N/A   Light Drizzle
6:25 PM 48.2 °F 46.4 °F 93% 29.73 in 5.0 mi East 6.9 mph 16.1 mph N/A Rain Light Rain
6:45 PM 48.2 °F 46.4 °F 93% 29.70 in 3.0 mi East 6.9 mph - N/A Rain Light Rain
7:05 PM 48.2 °F 46.4 °F 93% 29.70 in 7.0 mi ENE 4.6 mph - 0.01 in Rain Rain
7:25 PM 50.0 °F 48.2 °F 94% 29.69 in 7.0 mi East 6.9 mph - 0.01 in Rain Rain
7:45 PM 50.0 °F 46.4 °F 87% 29.67 in 4.0 mi East 8.1 mph - 0.02 in   Heavy Drizzle
8:05 PM 50.0 °F 48.2 °F 94% 29.65 in 4.0 mi East 8.1 mph - N/A   Drizzle
8:25 PM 50.0 °F 48.2 °F 94% 29.64 in 4.0 mi East 6.9 mph - 0.01 in   Drizzle
8:45 PM 50.0 °F 48.2 °F 94% 29.64 in 7.0 mi East 4.6 mph - 0.01 in Rain Light Rain
9:05 PM 50.0 °F 48.2 °F 94% 29.61 in 7.0 mi East 9.2 mph - 0.01 in Rain Rain
9:25 PM 50.0 °F 48.2 °F 94% 29.61 in 4.0 mi East 3.5 mph - 0.04 in Rain Rain
9:45 PM 50.0 °F 48.2 °F 94% 29.60 in 5.0 mi NNE 4.6 mph - 0.06 in Rain Heavy Rain
10:05 PM 50.0 °F 48.2 °F 94% 29.60 in 3.0 mi WNW 5.8 mph - 0.06 in Rain Heavy Rain
10:25 PM 50.0 °F 48.2 °F 94% 29.60 in 4.0 mi NNW 5.8 mph - 0.08 in Rain Heavy Rain
10:45 PM 48.2 °F 46.4 °F 93% 29.59 in 4.0 mi NNE 8.1 mph - 0.09 in   Drizzle
11:00 PM 48.2 °F 46.4 °F 93% 29.58 in 4.0 mi NNE 8.1 mph - N/A   Drizzle
11:25 PM 48.2 °F 46.4 °F 93% 29.58 in 4.0 mi North 5.8 mph - N/A   Drizzle
11:45 PM 48.2 °F 46.4 °F 93% 29.58 in 3.0 mi North 6.9 mph - 0.01 in Rain Light Rain